Lima, OH

5:58 AM EDT on August 18, 2017 (GMT -0400)
Lima Allen County

Weather History for KAOH - January, 2013

Change the Weather History Date:

Thursday, January 31, 2013

  Actual Average (KFDY) Record (KFDY)
Temperature  
Mean Temperature 24 °F -  
Max Temperature 32 °F 31 °F 63 °F (1989)
Min Temperature 15 °F 19 °F -5 °F (1963)
Degree Days  
Heating Degree Days 42    
Moisture  
Dew Point 15 °F    
Average Humidity 71    
Maximum Humidity 80    
Minimum Humidity 57    
Precipitation  
Precipitation 0.00 in - - ()
Sea Level Pressure  
Sea Level Pressure 29.78 in    
Wind  
Wind Speed 23 mph (West)    
Max Wind Speed 33 mph    
Max Gust Speed 45 mph    
Visibility 6 miles    
Events Snow    
Averages and records for this station are not official NWS values.
T = Trace of Precipitation, MM = Missing Value Source: NWS Daily Summary

Daily Weather History Graph

Daily Weather History Graph

Search for Another Location

Airport or City:

Trip Planner

Search our weather history database for the weather conditions in past years. The results will help you decide how hot, cold, wet, or windy it might be!

Date:

Astronomy

Jan. 31, 2013 Rise Set
Actual Time 7:46 AM EST 5:52 PM EST
Civil Twilight 7:17 AM EST 6:21 PM EST
Nautical Twilight 6:45 AM EST 6:54 PM EST
Astronomical Twilight 6:12 AM EST 7:26 PM EST
Moon 10:56 PM EST (1/31) 9:44 AM EST (1/31)
Length of Visible Light 11h 04m
Length of Day
10h 06m
Waning Gibbous, 80% of the Moon is Illuminated
Jan 31
Waning Gibbous
Feb 3
Last Quarter
Feb 10
New
Feb 17
First Quarter
Feb 25
Full

Hourly Weather History & Observations

Time (EST) Temp. Windchill Dew Point Humidity Pressure Visibility Wind Dir Wind Speed Gust Speed Precip Events Conditions
12:38 AM 32.0 °F 19.2 °F 24.8 °F 75% 29.45 in 10.0 mi West 23.0 mph 32.2 mph N/A   Overcast
12:53 AM 32.0 °F 20.1 °F 25.0 °F 75% 29.47 in 7.0 mi West 19.6 mph 33.4 mph 0.00 in Snow Light Snow
1:53 AM 30.0 °F 16.3 °F 23.0 °F 75% 29.51 in 9.0 mi West 24.2 mph 36.8 mph 0.00 in Snow Light Snow
2:13 AM 30.2 °F 15.4 °F 21.2 °F 69% 29.52 in 9.0 mi West 28.8 mph 40.3 mph 0.00 in Snow Light Snow
2:24 AM 28.4 °F 12.7 °F 23.0 °F 80% 29.53 in 6.0 mi West 29.9 mph 38.0 mph 0.00 in Snow Light Snow
2:53 AM 28.0 °F 11.5 °F 21.0 °F 75% 29.56 in 8.0 mi West 33.4 mph 41.4 mph 0.00 in Snow Light Snow
3:53 AM 26.1 °F 10.1 °F 18.0 °F 71% 29.60 in 5.0 mi West 27.6 mph 43.7 mph 0.00 in Snow Light Snow
4:53 AM 24.1 °F 7.4 °F 16.0 °F 71% 29.63 in 8.0 mi West 27.6 mph 38.0 mph 0.00 in Snow Light Snow
5:53 AM 24.1 °F 8.3 °F 12.9 °F 62% 29.67 in 10.0 mi West 24.2 mph 44.9 mph 0.00 in   Overcast
6:10 AM 23.0 °F 8.0 °F 17.6 °F 80% 29.65 in 2.0 mi West 20.7 mph 32.2 mph 0.00 in Snow Light Snow
6:17 AM 23.0 °F 8.3 °F 17.6 °F 80% 29.65 in 1.5 mi West 19.6 mph 27.6 mph 0.00 in Snow Light Snow
6:33 AM 23.0 °F 6.6 °F 15.8 °F 74% 29.66 in 3.0 mi West 25.3 mph 35.7 mph 0.00 in Snow Light Snow
6:41 AM 23.0 °F 7.2 °F 15.8 °F 74% 29.66 in 9.0 mi West 23.0 mph 31.1 mph 0.00 in   Overcast
6:53 AM 23.0 °F 6.3 °F 14.0 °F 68% 29.69 in 10.0 mi West 26.5 mph 36.8 mph 0.00 in Snow Light Snow
7:53 AM 19.9 °F 1.5 °F 10.9 °F 68% 29.74 in 9.0 mi West 28.8 mph 36.8 mph 0.00 in Snow Light Snow
8:09 AM 19.4 °F 2.5 °F 8.6 °F 63% 29.72 in 10.0 mi West 23.0 mph 40.3 mph 0.00 in   Overcast
8:53 AM 19.9 °F 3.9 °F 12.9 °F 74% 29.77 in 2.5 mi West 20.7 mph 26.5 mph 0.00 in Snow Light Snow
8:56 AM 19.4 °F 4.1 °F 12.2 °F 74% 29.74 in 1.8 mi West 18.4 mph - 0.00 in Snow Light Snow
9:23 AM 19.4 °F 0.8 °F 12.2 °F 74% 29.75 in 3.0 mi West 28.8 mph 38.0 mph 0.00 in Snow Light Snow
9:53 AM 21.0 °F 4.3 °F 12.9 °F 71% 29.80 in 8.0 mi WSW 24.2 mph 32.2 mph 0.00 in Snow Light Snow
10:53 AM 21.9 °F 4.8 °F 12.9 °F 68% 29.83 in 10.0 mi West 26.5 mph 36.8 mph 0.00 in   Overcast
11:35 AM 23.0 °F 7.6 °F 15.8 °F 74% 29.80 in 5.0 mi WSW 21.9 mph 27.6 mph 0.00 in Snow Light Snow
11:51 AM 23.0 °F 8.0 °F 15.8 °F 74% 29.80 in 5.0 mi West 20.7 mph 26.5 mph 0.00 in Snow Light Snow
11:53 AM 24.1 °F 9.8 °F 16.0 °F 71% 29.83 in 6.0 mi WSW 19.6 mph 26.5 mph 0.00 in Snow Light Snow
12:15 PM 24.8 °F 9.3 °F 15.8 °F 69% 29.79 in 7.0 mi West 24.2 mph 33.4 mph 0.00 in Snow Light Snow
12:53 PM 26.1 °F 10.1 °F 12.9 °F 58% 29.82 in 10.0 mi West 27.6 mph 35.7 mph 0.00 in   Overcast
1:32 PM 24.8 °F 8.4 °F 17.6 °F 74% 29.79 in 1.2 mi West 27.6 mph - 0.00 in Snow Light Snow
1:36 PM 24.8 °F 8.7 °F 19.4 °F 80% 29.79 in 0.5 mi WSW 26.5 mph 32.2 mph 0.00 in Snow Snow
1:43 PM 26.6 °F 11.1 °F 17.6 °F 69% 29.79 in 1.2 mi WSW 26.5 mph 36.8 mph 0.00 in Snow Light Snow
1:46 PM 26.6 °F 11.7 °F 17.6 °F 69% 29.79 in 3.0 mi WSW 24.2 mph 36.8 mph 0.00 in Snow Light Snow
1:53 PM 26.1 °F 11.3 °F 17.1 °F 69% 29.83 in 9.0 mi WSW 23.0 mph 34.5 mph 0.00 in   Overcast
2:24 PM 26.6 °F 12.4 °F 19.4 °F 74% 29.80 in 4.0 mi WSW 21.9 mph - 0.00 in Snow Light Snow
2:49 PM 26.6 °F 10.6 °F 15.8 °F 64% 29.80 in 4.0 mi WSW 28.8 mph 38.0 mph 0.00 in Snow Light Snow
2:53 PM 26.1 °F 10.1 °F 16.0 °F 66% 29.83 in 4.0 mi West 27.6 mph 40.3 mph 0.00 in Snow Light Snow
3:53 PM 25.0 °F 9.9 °F 15.1 °F 66% 29.84 in 10.0 mi West 23.0 mph 35.7 mph 0.00 in   Overcast
4:53 PM 24.1 °F 8.3 °F 10.9 °F 57% 29.86 in 10.0 mi West 24.2 mph 34.5 mph N/A   Mostly Cloudy
5:53 PM 21.9 °F 5.8 °F 14.0 °F 72% 29.87 in 5.0 mi West 23.0 mph 29.9 mph 0.00 in Snow Light Snow
6:02 PM 21.2 °F 7.3 °F 14.0 °F 74% 29.83 in 2.5 mi West 16.1 mph 27.6 mph 0.00 in Snow Light Snow
6:09 PM 21.2 °F 6.0 °F 14.0 °F 74% 29.83 in 5.0 mi West 19.6 mph 25.3 mph 0.00 in Snow Light Snow
6:25 PM 21.2 °F 4.9 °F 12.2 °F 68% 29.84 in 8.0 mi West 23.0 mph 26.5 mph 0.00 in Snow Light Snow
6:53 PM 21.9 °F 8.2 °F 12.9 °F 68% 29.90 in 9.0 mi West 16.1 mph - 0.00 in   Overcast
7:22 PM 21.2 °F 6.4 °F 12.2 °F 68% 29.87 in 9.0 mi West 18.4 mph 24.2 mph 0.00 in Snow Light Snow
7:32 PM 21.2 °F 7.8 °F 12.2 °F 68% 29.87 in 6.0 mi West 15.0 mph 21.9 mph 0.00 in Snow Light Snow
7:49 PM 21.2 °F 6.0 °F 14.0 °F 74% 29.88 in 2.5 mi WNW 19.6 mph 26.5 mph 0.00 in Snow Light Snow
7:53 PM 19.9 °F 4.8 °F 14.0 °F 78% 29.93 in 1.8 mi WNW 18.4 mph 26.5 mph 0.00 in Snow Light Snow
8:05 PM 19.4 °F 5.0 °F 14.0 °F 80% 29.88 in 3.0 mi WNW 16.1 mph - 0.00 in Snow Light Snow
8:36 PM 19.4 °F 5.0 °F 10.4 °F 68% 29.89 in 10.0 mi WNW 16.1 mph 26.5 mph 0.00 in   Overcast
8:53 PM 19.0 °F 4.5 °F 10.9 °F 71% 29.94 in 9.0 mi WNW 16.1 mph 25.3 mph 0.00 in Snow Light Snow
9:18 PM 19.4 °F 2.8 °F 8.6 °F 63% 29.90 in 10.0 mi West 21.9 mph 28.8 mph 0.00 in   Overcast
10:08 PM 17.6 °F 1.3 °F 10.4 °F 73% 29.91 in 1.8 mi WNW 19.6 mph 27.6 mph 0.00 in Snow Light Snow
10:14 PM 17.6 °F 2.2 °F 10.4 °F 73% 29.91 in 3.0 mi WNW 17.3 mph 27.6 mph 0.00 in Snow Light Snow
10:26 PM 15.8 °F -0.2 °F 6.8 °F 68% 29.91 in 9.0 mi WNW 17.3 mph 25.3 mph 0.00 in   Mostly Cloudy
10:53 PM 16.0 °F 0.6 °F 6.1 °F 65% 29.96 in 10.0 mi West 16.1 mph 25.3 mph 0.00 in   Clear
11:31 PM 15.8 °F -2.3 °F 6.8 °F 68% 29.94 in 10.0 mi West 23.0 mph 27.6 mph N/A   Mostly Cloudy
11:53 PM 15.1 °F -2.5 °F 5.0 °F 64% 30.00 in 10.0 mi West 20.7 mph 32.2 mph N/A   Overcast